Weather reports worldwide

Advertisment
Finisterre, Spain (8040): temperature & dewpoint: 24.09.2020 16:00:00 - 30.09.2020 16:00:00 (CEST)Finisterre, Spain (8040): wind speed & gusts: 24.09.2020 16:00:00 - 30.09.2020 16:00:00 (CEST)Finisterre, Spain (8040): wind direction: 24.09.2020 16:00:00 - 30.09.2020 16:00:00 (CEST)Finisterre, Spain (8040): reduced air pressure: 24.09.2020 16:00:00 - 30.09.2020 16:00:00 (CEST)Finisterre, Spain (8040): visibility: 24.09.2020 16:00:00 - 30.09.2020 16:00:00 (CEST)Finisterre, Spain (8040): sunshine duration: 24.09.2020 16:00:00 - 30.09.2020 16:00:00 (CEST)Finisterre, Spain (8040): precipitation: 24.09.2020 16:00:00 - 30.09.2020 16:00:00 (CEST)
Date & Time tt [°C] td [°C] ff [km/h] ff [kn] fx [km/h] fx [kn] dd ppp [hPa] vv [km] sd [min] rr [mm]
30.09.2020 16:00:00 - - - - - - - - - - -
30.09.2020 15:00:00 - - - - - - - - - - -
30.09.2020 14:00:00 19,2 14,0 18 10 24 13 SSW 1016,9 13 11 -
30.09.2020 13:00:00 - - - - - - - - - - -
30.09.2020 12:00:00 - - - - - - - - - - -
30.09.2020 11:00:00 - - - - - - - - - - -
30.09.2020 10:00:00 - - - - - - - - - - -
30.09.2020 09:00:00 - - - - - - - - - - -
30.09.2020 08:00:00 13,9 11,8 17 9 24 13 N 1017,9 14 0 -
30.09.2020 07:00:00 - - - - - - - - - - -
30.09.2020 06:00:00 14,4 12,7 13 7 20 11 N 1017,6 13 0 0,0
30.09.2020 05:00:00 - - - - - - - - - - -
30.09.2020 04:00:00 14,7 12,7 11 6 19 10 N 1018,2 14 0 0,0
30.09.2020 03:00:00 15,0 12,8 16 9 29 15 N 1018,3 14 0 0,0
30.09.2020 02:00:00 14,7 12,5 20 11 29 16 NNE 1018,5 14 0 -
30.09.2020 01:00:00 14,9 12,5 23 13 33 18 NNE 1018,5 15 0 0,0
30.09.2020 00:00:00 14,9 12,0 29 15 35 19 NNE 1018,7 17 0 0,0
29.09.2020 23:00:00 - - - - - - - - - - -
29.09.2020 22:00:00 - - - - - - - - - - -
29.09.2020 21:00:00 15,4 11,8 36 20 48 26 NE 1017,7 16 2 0,0
29.09.2020 20:00:00 16,0 11,1 31 17 42 23 NNE 1017,7 12 53 -
29.09.2020 19:00:00 - - - - - - - - - - -
29.09.2020 18:00:00 16,1 12,4 31 17 48 26 NNE 1017,2 11 60 0,0
29.09.2020 17:00:00 - - - - - - - - - - -
29.09.2020 16:00:00 - - - - - - - - - - -
29.09.2020 15:00:00 15,5 11,9 30 16 43 23 NNE 1018,1 12 60 0,0
29.09.2020 14:00:00 16,3 11,4 29 16 43 23 NNE 1018,4 11 59 -
29.09.2020 13:00:00 14,9 11,3 29 16 40 22 NNE 1018,8 13 60 0,0
29.09.2020 12:00:00 - - - - - - - - - - -
29.09.2020 11:00:00 14,9 9,9 23 12 41 22 NE 1018,9 16 57 0,0
29.09.2020 10:00:00 13,1 9,6 31 17 44 24 NE 1018,8 14 37 0,0
29.09.2020 09:00:00 12,4 9,2 34 18 41 22 NNE 1018,2 14 6 0,0
29.09.2020 08:00:00 12,4 9,2 33 18 44 24 NNE 1017,8 14 0 -
29.09.2020 07:00:00 12,7 9,2 29 16 50 27 NE 1017,8 14 0 0,0
29.09.2020 06:00:00 13,2 9,3 31 17 56 30 NE 1017,7 15 0 0,0
29.09.2020 05:00:00 13,1 9,3 31 17 54 29 NE 1017,9 14 0 0,0
29.09.2020 04:00:00 13,4 9,3 37 20 56 30 ENE 1017,8 15 0 0,0
29.09.2020 03:00:00 13,3 8,9 30 16 59 32 NE 1018,5 14 0 0,0
29.09.2020 02:00:00 13,7 8,9 36 19 54 29 NE 1018,5 17 0 -
29.09.2020 01:00:00 - - - - - - - - - - -
29.09.2020 00:00:00 13,5 9,9 33 18 52 28 NE 1018,6 14 0 0,0
28.09.2020 23:00:00 13,8 10,6 28 15 57 31 NE 1018,9 14 0 0,0
28.09.2020 22:00:00 13,9 11,1 41 22 58 31 NE 1018,7 14 0 0,0
28.09.2020 21:00:00 - - - - - - - - - - -
28.09.2020 20:00:00 14,2 11,2 31 17 46 25 NNE 1018,4 12 0 -
28.09.2020 19:00:00 - - - - - - - - - - -
28.09.2020 18:00:00 - - - - - - - - - - -
28.09.2020 17:00:00 15,4 11,0 31 17 49 26 NNE 1018,1 12 60 0,0
28.09.2020 16:00:00 - - - - - - - - - - -
28.09.2020 15:00:00 - - - - - - - - - - -
28.09.2020 14:00:00 16,4 10,0 25 14 38 20 NNE 1019,2 13 20 -
28.09.2020 13:00:00 - - - - - - - - - - -
28.09.2020 12:00:00 - - - - - - - - - - -
28.09.2020 11:00:00 13,6 9,0 19 10 43 23 NE 1019,7 14 14 0,0
28.09.2020 10:00:00 13,2 8,5 25 13 47 26 ENE 1019,3 16 32 0,0
28.09.2020 09:00:00 11,9 7,8 32 17 45 25 ENE 1019,5 14 5 0,0
28.09.2020 08:00:00 11,5 7,6 27 15 42 23 ENE 1019,6 15 0 -
28.09.2020 07:00:00 - - - - - - - - - - -
28.09.2020 06:00:00 - - - - - - - - - - -
28.09.2020 05:00:00 - - - - - - - - - - -
28.09.2020 04:00:00 11,5 8,0 30 16 41 22 ENE 1020,0 15 0 0,0
28.09.2020 03:00:00 - - - - - - - - - - -
28.09.2020 02:00:00 11,8 8,7 28 15 40 21 NE 1020,7 15 0 -
28.09.2020 01:00:00 12,3 8,8 29 15 44 24 NE 1020,9 14 0 0,0
28.09.2020 00:00:00 12,5 8,8 30 16 39 21 NE 1020,8 13 0 0,0
27.09.2020 23:00:00 12,5 8,9 29 16 39 21 NE 1020,7 14 0 0,0
27.09.2020 22:00:00 - - - - - - - - - - -
27.09.2020 21:00:00 13,1 8,1 36 19 47 26 NE 1019,8 14 0 0,0
27.09.2020 20:00:00 14,0 8,8 31 17 44 24 NNE 1019,7 14 52 -
27.09.2020 19:00:00 - - - - - - - - - - -
27.09.2020 18:00:00 - - - - - - - - - - -
27.09.2020 17:00:00 16,0 8,9 27 15 46 25 NNE 1019,8 13 60 0,0
27.09.2020 16:00:00 16,3 9,9 20 11 47 26 NNE 1020,0 15 57 0,0
27.09.2020 15:00:00 - - - - - - - - - - -
27.09.2020 14:00:00 16,0 11,1 13 7 28 15 NNE 1021,1 13 41 -
27.09.2020 13:00:00 15,6 11,3 13 7 34 19 NNE 1021,1 14 19 0,0
27.09.2020 12:00:00 15,1 11,9 19 10 32 18 ENE 1021,1 17 52 0,0
27.09.2020 11:00:00 - - - - - - - - - - -
27.09.2020 10:00:00 - - - - - - - - - - -
27.09.2020 09:00:00 13,7 13,0 21 11 36 19 NE 1020,1 8 5 0,0
27.09.2020 08:00:00 13,7 12,7 24 13 45 24 ENE 1019,6 11 0 -
27.09.2020 07:00:00 - - - - - - - - - - -
27.09.2020 06:00:00 14,5 12,7 36 19 49 26 NE 1018,8 16 0 0,0
27.09.2020 05:00:00 - - - - - - - - - - -
27.09.2020 04:00:00 15,1 14,6 23 13 40 22 NNE 1019,7 0,1 0 0,0
27.09.2020 03:00:00 - - - - - - - - - - -
27.09.2020 02:00:00 15,3 14,8 26 14 39 21 N 1020,1 2,7 0 -
27.09.2020 01:00:00 15,1 14,6 21 11 41 22 N 1020,3 6 0 0,0
27.09.2020 00:00:00 15,2 14,7 27 14 37 20 N 1020,4 7 0 0,0
26.09.2020 23:00:00 - - - - - - - - - - -
26.09.2020 22:00:00 15,8 15,3 27 14 41 22 N 1020,4 0,8 0 0,0
26.09.2020 21:00:00 15,5 15,0 27 15 54 29 N 1020,2 0,7 0 0,2
26.09.2020 20:00:00 16,3 15,8 19 10 40 21 NNW 1020,0 0,8 0 -
26.09.2020 19:00:00 16,2 15,7 17 9 48 26 NW 1020,0 0,1 0 0,0
26.09.2020 18:00:00 - - - - - - - - - - -
26.09.2020 17:00:00 15,4 14,9 28 15 46 25 WNW 1021,1 0,9 0 0,4
26.09.2020 16:00:00 14,9 14,4 25 14 44 24 NW 1022,2 0,1 0 1,2
26.09.2020 15:00:00 - - - - - - - - - - -
26.09.2020 14:00:00 15,3 14,5 22 12 34 18 NW 1023,5 2,0 0 -
26.09.2020 13:00:00 15,2 14,4 18 10 30 16 WNW 1024,3 9 0 0,2
26.09.2020 12:00:00 14,8 13,9 18 10 29 15 NW 1024,7 7 0 0,0
26.09.2020 11:00:00 - - - - - - - - - - -
26.09.2020 10:00:00 - - - - - - - - - - -
26.09.2020 09:00:00 14,0 12,5 16 9 26 14 W 1025,4 13 0 0,0
26.09.2020 08:00:00 13,5 12,4 9 5 19 10 WNW 1025,6 14 0 -
26.09.2020 07:00:00 13,5 12,2 13 7 18 10 W 1025,9 12 0 0,0
26.09.2020 06:00:00 13,1 11,8 6 3 32 17 NNW 1026,5 13 0 0,0
26.09.2020 05:00:00 13,8 11,0 10 5 18 10 WNW 1026,7 12 0 0,0
26.09.2020 04:00:00 13,8 10,8 15 8 38 21 N 1027,2 10 0 0,0
26.09.2020 03:00:00 13,9 11,4 9 5 26 14 NW 1027,8 9 0 0,0
26.09.2020 02:00:00 13,9 10,6 10 6 22 12 NNW 1028,4 8 0 -
26.09.2020 01:00:00 14,0 9,8 16 9 29 16 N 1028,9 11 0 0,0
26.09.2020 00:00:00 14,3 9,7 22 12 34 19 N 1029,0 9 0 0,0
25.09.2020 23:00:00 - - - - - - - - - - -
25.09.2020 22:00:00 - - - - - - - - - - -
25.09.2020 21:00:00 14,4 8,5 23 13 37 20 N 1028,6 11 0 0,0
25.09.2020 20:00:00 14,7 8,7 24 13 42 23 N 1028,1 10 48 -
25.09.2020 19:00:00 - - - - - - - - - - -
25.09.2020 18:00:00 - - - - - - - - - - -
25.09.2020 17:00:00 - - - - - - - - - - -
25.09.2020 16:00:00 - - - - - - - - - - -
25.09.2020 15:00:00 - - - - - - - - - - -
25.09.2020 14:00:00 15,0 9,8 26 14 49 27 N 1028,0 9 53 -
25.09.2020 13:00:00 - - - - - - - - - - -
25.09.2020 12:00:00 - - - - - - - - - - -
25.09.2020 11:00:00 12,2 10,0 25 14 61 33 NNW 1026,9 12 34 0,0
25.09.2020 10:00:00 13,5 8,9 19 11 54 29 NNW 1026,1 9 10 0,0
25.09.2020 09:00:00 - - - - - - - - - - -
25.09.2020 08:00:00 13,9 8,8 21 11 49 27 NNW 1024,2 8 0 -
25.09.2020 07:00:00 13,8 7,6 18 10 55 30 NNW 1023,8 9 0 0,0
25.09.2020 06:00:00 - - - - - - - - - - -
25.09.2020 05:00:00 13,9 7,7 20 11 44 24 NNW 1022,9 10 0 0,0
25.09.2020 04:00:00 - - - - - - - - - - -
25.09.2020 03:00:00 - - - - - - - - - - -
25.09.2020 02:00:00 13,3 8,1 13 7 54 29 NNW 1022,7 12 0 -
25.09.2020 01:00:00 13,9 8,1 16 9 46 25 NNW 1022,0 10 0 0,0
25.09.2020 00:00:00 13,9 8,9 22 12 48 26 NNW 1021,6 7 0 0,0
24.09.2020 23:00:00 - - - - - - - - - - -
24.09.2020 22:00:00 - - - - - - - - - - -
24.09.2020 21:00:00 - - - - - - - - - - -
24.09.2020 20:00:00 14,5 10,3 17 9 63 34 NNW 1018,9 9 10 -
24.09.2020 19:00:00 - - - - - - - - - - -
24.09.2020 18:00:00 16,5 11,0 22 12 51 28 NNW 1017,1 10 29 0,0
24.09.2020 17:00:00 17,4 11,9 28 15 48 26 NW 1017,0 7 19 0,0
24.09.2020 16:00:00 - - - - - - - - - - -

tt = temperature
td = dewpoint
ff = wind speed
fx = gusts
dd = wind direction
ppp = reduced air pressure
vv = visibility
sd = sunshine duration
rr = precipitation

Next stations